1998-067PN (43638 NORAD) Tracking and Keplerian Element Data

This shows tracking and keplerian element data for the satellite.

Feedback or suggestion? Click here.




ElementValue
Catalog43638
Name1998-067PN
Epoch Orbit589
Epoch Day317.57767712
Epoch Year2018
RAAN354.0413
Inclination51.6402
Eccentricity0.0003283
Argument of Perigee14.5087
Mean Anonmoly345.5998
Mean Motion15.5491806
Decay Rate6.392E-05
L11 43638U 98067PN 18317.57767712 .00006392 00000-0 10083-3 0 9991
L22 43638 51.6402 354.0413 0003283 14.5087 345.5998 15.54918060 5899

Live tracking and technical data element details for 1998-067PN (NORAD 43638). 1998-067PN can be tracked NOW for your location showing map with azimuth and elevation plus other details from your city location.

Track the satellite on the map from your city or location and see movement details for azimuth, elevation, latitude, longitude, range, height, and movement on the map or in text.







IsCatalogInMostPopularTable: catalog: 43638, numindb: 14
Update: records affected: 1



GetName: 43638 1998-067PN

Hit Count: updated at: Thu, 15 Nov 2018 04:42:36 GMT